Regional Weather Roundup
Issued by NWS

Home | Current Version | Previous Version | Text Only | Print | Product List | Glossary Off
Versions: 1 2 3 4 5 6 7 8 9 10 11 12 13 14 15 16 17 18 19 20 21 22 23 24 25 26 27 28 29 30 31 32 33 34 35 36 37 38 39 40 41 42 43 44 45 46 47 48 49 50

904
ASUS43 KOAX 051902
RWRNE

WEATHER ROUNDUP FOR NEBRASKA
NATIONAL WEATHER SERVICE OMAHA NE
100 PM CST FRI FEB 05 2016

NOTES: SATELLITE DATA IS BEING USED TO AUGMENT CLOUD COVER ABOVE
       12000 FEET.
       "FAIR" INDICATES FEW OR NO CLOUDS BELOW 12,000 FEET WITH NO
       SIGNIFICANT WEATHER AND/OR OBSTRUCTIONS TO VISIBILITY.

  * THESE STATIONS DO NOT REPORT WEATHER SUCH AS RAIN...SNOW OR FOG.

NEZ001>004-019>022-054>056-052000-
NEBRASKA PANHANDLE

CITY           SKY/WX    TMP DP  RH WIND       PRES   REMARKS
SCOTTSBLUFF    SUNNY     32  18  56 W17       30.27F WCI  21
ALLIANCE       SUNNY     32  24  72 W17       30.22F WCI  21
CHADRON        SUNNY     36  24  62 W16       30.24F WCI  26
SIDNEY         SUNNY     30  20  66 NW20      30.27F WCI  17
$$

NEZ057>060-069>072-079>082-052000-
SOUTHWEST NEBRASKA

CITY           SKY/WX    TMP DP  RH WIND       PRES   REMARKS
NORTH PLATTE   CLOUDY    35  25  66 NW15      30.24F WCI  25
IMPERIAL       SUNNY     35  20  54 NW20G29   30.26F WCI  24
MCCOOK         SUNNY     36  25  64 NW17      30.27F WCI  26
$$

NEZ005>010-023>029-035>040-094-052000-
NORTH CENTRAL NEBRASKA

CITY           SKY/WX    TMP DP  RH WIND       PRES   REMARKS
VALENTINE      CLOUDY    34  27  75 NW14G23   30.20S WCI  25
AINSWORTH      CLOUDY    36  28  71 NW17      30.18F WCI  26
BROKEN BOW     CLOUDY    36  27  69 NW9       30.20F WCI  29
ORD            CLOUDY    38  27  64 NW17      30.19F WCI  28
$$

NEZ041-046>049-061>064-073>077-083>087-052000-
SOUTH CENTRAL NEBRASKA

CITY           SKY/WX    TMP DP  RH WIND       PRES   REMARKS
GRAND ISLAND   MOSUNNY   34  28  79 SW15      30.22F WCI  24
HASTINGS       MOSUNNY   32  28  85 SW8       30.22F WCI  25
KEARNEY *      CLOUDY    39 -11  11 W13       30.22F WCI  32
$$

NEZ011>018-030>034-042>045-052000-
NORTHEAST NEBRASKA

CITY           SKY/WX    TMP DP  RH WIND       PRES   REMARKS
NORFOLK        CLOUDY    30  26  85 S13       30.19F WCI  20
COLUMBUS *     CLOUDY    30  21  69 SW10      30.23F WCI  21
FREMONT        CLOUDY    28  24  84 S8        30.27S FOG     WCI  20
TEKAMAH        LGT SNOW  28  25  88 S14       30.27F FOG     WCI  17
$$

NEZ050>053-065>068-078-088>093-052000-
SOUTHEAST NEBRASKA

CITY           SKY/WX    TMP DP  RH WIND       PRES   REMARKS
LINCOLN        LGT SNOW  30  26  85 S10       30.28F FOG     WCI  21
OMAHA EPPLEY   LGT SNOW  28  25  88 S14       30.29F VSB 3/4 WCI  17
BEATRICE       LGT SNOW  31  26  81 SW12      30.28F WCI  21
FALLS CITY     CLOUDY    33  22  63 S9        30.34F WCI  25
NEBRASKA CITY  LGT SNOW  30  25  83 S13       30.30F WCI  20
$$

NEZ044-045-051>053-067-052000-
OMAHA AREA

CITY           SKY/WX    TMP DP  RH WIND       PRES   REMARKS
OMAHA EPPLEY   LGT SNOW  28  25  88 S14       30.29F VSB 3/4 WCI  17
FREMONT        CLOUDY    28  24  84 S8        30.27S FOG     WCI  20
OFFUTT AFB     LGT SNOW  28  27  93 SE10      30.30F FOG     WCI  19
WAHOO          LGT SNOW  29  26  88 S12       30.26F WCI  20
$$




USA.gov is the U.S. government's official web portal to all federal, state and local government web resources and services.